Theta_e
301 302 301 301 300 300 300 299 299 300 299 300 302 301 301 300 300 301 299 299 299 298 297 296 295 295 294 293 293 293 293 292 292 292 293 293 292 293 292 293 293 291 290 289 288 289 289 287 286 285 285 285 284 284 284 284 282 281 281 281 280 280 281 279 279 278 278 279 281 281 281 281 281 282 281 282 281 282 284 282 282 280 280 279 279
302 302 301 301 299 299 298 297 298 297 297 297 298 298 297 298 298 298 295 296 296 296 295 295 294 294 293 292 292 291 292 292 291 291 291 291 291 293 292 292 292 290 290 289 288 288 287 286 285 284 285 285 284 284 283 282 281 280 280 280 280 280 279 278 278 277 277 277 278 280 280 281 280 282 281 281 281 281 281 281 282 281 280 279 278
301 300 300 299 298 297 296 295 296 294 295 294 293 293 293 292 295 297 297 295 295 296 295 294 293 292 292 291 291 290 291 290 290 291 291 292 291 291 291 291 291 290 289 289 288 287 286 286 285 284 284 283 283 283 282 280 280 280 279 280 279 279 278 279 278 276 277 277 278 279 279 280 280 280 281 281 282 281 280 280 280 281 281 280 279
298 298 298 297 296 294 295 294 293 293 293 293 293 292 291 291 291 294 295 295 294 293 294 293 292 291 291 290 290 290 290 290 290 291 291 292 291 291 290 291 291 290 290 289 287 287 286 285 284 283 283 283 281 281 281 280 280 279 279 279 279 279 279 279 279 278 277 277 277 277 277 278 279 280 280 280 279 280 280 280 280 280 280 280 279
296 297 295 295 293 293 292 292 292 292 292 291 291 291 290 291 290 292 293 294 293 292 291 291 291 290 290 290 289 289 290 290 290 290 291 291 291 290 290 290 290 289 289 288 286 286 286 285 283 283 283 282 281 281 280 280 279 279 279 279 279 279 279 279 279 279 278 278 278 279 279 278 278 278 278 278 278 278 278 278 279 278 278 278 278
296 296 295 294 294 292 292 291 292 292 292 290 290 290 290 290 290 290 293 293 291 291 291 290 290 290 290 289 289 289 289 289 289 290 290 290 290 290 289 289 289 288 288 287 286 286 285 284 283 282 282 281 281 281 280 279 279 279 279 279 279 279 279 279 279 278 278 278 278 278 278 278 278 278 278 278 277 277 277 277 276 276 276 276 277
296 296 294 293 294 293 292 293 292 292 291 291 290 289 289 289 290 290 291 292 291 290 289 289 289 289 289 288 288 288 288 288 289 289 289 289 289 289 288 288 288 287 287 286 285 285 284 283 282 282 281 281 280 280 280 280 280 279 280 279 280 280 279 279 279 279 279 278 278 279 278 278 278 278 278 277 277 277 275 275 276 277 276 276 277
296 295 294 294 294 294 294 292 291 291 291 290 290 290 289 289 289 289 288 290 290 290 289 289 288 288 288 288 287 287 287 287 287 288 288 288 288 288 288 287 286 286 285 284 284 283 283 282 281 281 281 281 280 281 281 280 280 280 280 280 280 280 279 279 279 279 279 278 278 278 278 278 278 278 277 277 276 275 276 275 275 276 277 277 276
296 296 295 295 296 296 293 291 290 290 290 290 290 290 289 289 288 287 287 288 289 289 288 288 287 287 286 286 286 286 286 286 287 287 287 287 287 287 286 286 285 284 283 282 282 282 281 281 281 280 281 282 283 283 283 283 281 280 280 281 280 280 280 279 279 279 279 279 278 279 278 278 278 277 277 277 277 277 277 276 276 277 277 277 277
296 295 296 297 297 295 292 291 291 289 290 290 290 289 289 288 287 286 286 287 287 287 287 287 287 286 286 285 285 285 285 286 286 288 288 287 286 286 286 285 284 283 282 281 280 280 280 280 280 282 282 283 283 284 285 285 284 283 281 281 281 280 280 279 278 279 278 278 278 279 278 278 278 278 278 278 278 278 277 277 276 277 276 276 277
294 294 295 296 295 292 291 291 290 290 290 289 289 288 288 287 286 286 286 286 286 286 287 286 286 286 286 285 285 285 285 285 286 289 290 289 287 286 285 284 284 283 282 280 279 279 279 279 280 282 283 283 283 285 285 285 285 285 284 284 284 282 280 279 279 279 278 278 279 279 278 278 279 279 279 279 278 277 277 276 276 276 275 274 273
295 295 295 295 293 292 291 291 290 290 289 289 288 288 287 286 286 285 285 284 284 285 286 286 286 285 285 285 285 285 285 286 288 289 290 289 288 285 285 284 283 282 281 280 279 279 279 280 282 282 282 283 283 284 285 285 285 285 285 285 285 284 284 282 280 279 279 278 278 278 279 279 279 280 279 279 278 277 277 277 277 276 276 275 276
294 294 294 293 292 290 289 290 290 289 288 288 288 287 287 286 285 284 284 284 283 284 285 285 285 285 285 284 284 284 284 287 289 289 290 290 289 286 284 283 283 282 280 280 279 279 280 281 281 282 283 284 284 284 284 284 285 285 285 285 285 286 286 286 284 282 281 279 278 278 280 279 279 279 279 278 280 278 278 278 278 278 278 277 277
292 293 292 291 290 289 289 289 289 289 287 287 287 286 286 286 285 284 284 283 283 284 285 285 284 284 284 284 284 283 283 286 289 289 289 289 289 287 283 283 282 281 280 280 280 280 281 281 281 281 282 283 283 283 283 283 283 283 283 283 283 284 285 286 285 284 283 281 280 279 280 280 279 279 280 281 279 278 278 278 279 278 278 278 278
291 291 291 290 289 289 289 289 289 288 287 287 286 286 286 285 283 283 283 283 284 284 284 284 284 284 284 283 282 282 282 287 289 289 290 290 289 286 283 282 282 281 280 280 280 281 282 282 282 282 282 282 282 283 283 283 283 282 282 282 282 282 282 282 282 283 283 283 282 281 281 281 280 280 281 281 280 280 280 279 280 279 279 279 278
290 289 290 289 289 289 289 288 288 286 286 285 285 284 284 283 283 282 282 283 284 285 284 285 284 284 284 283 282 281 283 288 289 289 290 290 289 284 282 282 281 280 279 279 280 281 282 282 282 281 281 281 283 285 284 282 281 280 280 280 280 280 280 282 284 284 283 282 282 281 281 281 283 282 283 283 282 282 282 281 279 278 278 276 276
289 289 289 289 289 288 288 288 287 286 286 285 284 283 283 282 282 282 282 283 284 284 284 284 284 283 283 283 282 281 283 287 288 289 290 290 287 282 282 281 280 279 279 279 280 281 281 282 282 281 281 281 284 285 285 283 280 279 279 278 278 278 278 280 284 285 285 285 285 285 285 284 285 285 285 285 284 282 279 277 277 278 276 275 275
289 288 288 288 288 287 287 287 287 285 284 285 284 283 282 282 282 283 283 283 283 284 284 283 283 283 282 282 282 281 283 285 288 289 289 288 284 282 281 280 279 279 278 279 279 280 281 282 282 281 281 281 285 286 286 283 280 279 278 277 277 277 277 279 280 281 284 284 284 284 284 284 284 284 284 284 283 282 279 276 278 277 275 275 273
287 287 287 286 286 287 287 287 286 285 284 284 284 283 282 282 282 283 284 285 284 284 283 283 282 282 282 282 282 282 283 285 287 288 288 287 284 282 281 279 279 278 278 278 279 280 281 282 282 282 282 282 286 287 286 283 280 280 279 278 277 276 276 278 277 276 277 277 278 279 280 281 281 280 281 283 282 280 279 277 277 275 273 273 273
286 285 284 285 285 285 286 286 285 285 284 283 283 283 282 281 282 283 284 284 283 283 282 282 281 281 281 281 282 282 283 284 286 288 288 286 284 281 280 279 278 278 278 278 279 280 280 281 282 284 284 286 287 287 286 284 281 280 280 278 276 276 277 277 278 279 279 279 278 278 277 278 279 280 279 278 277 278 277 277 276 275 273 273 273
283 284 284 284 283 284 284 285 284 283 284 283 282 281 282 282 282 283 283 283 282 281 281 281 280 280 280 281 281 282 283 284 285 288 287 286 285 282 280 280 279 279 279 279 279 279 279 280 281 285 286 287 287 287 287 285 283 280 279 278 278 279 280 279 281 281 279 278 276 274 274 275 277 277 276 276 275 274 274 275 273 271 271 271 271
282 282 282 282 282 282 282 281 283 283 281 281 281 280 281 282 283 283 282 282 281 280 280 279 279 279 279 279 280 281 283 284 285 286 286 285 285 284 281 280 281 280 279 279 280 280 280 280 280 284 286 287 287 287 287 286 284 280 281 283 284 283 280 280 278 276 274 272 271 272 272 272 273 274 272 271 271 271 270 268 270 270 270 271 272
281 280 280 280 280 280 280 281 281 281 281 281 281 280 281 282 283 282 281 281 280 279 279 278 278 278 278 279 280 281 282 284 285 285 285 286 285 284 283 282 284 282 281 280 281 281 281 281 281 284 286 286 286 286 286 286 285 282 285 284 283 281 279 275 274 272 271 270 271 270 270 270 272 271 271 269 268 267 267 266 267 267 268 269 270
280 279 279 278 279 279 279 279 280 280 280 280 280 280 281 282 282 281 281 280 279 278 278 278 277 277 277 277 279 280 282 283 284 284 285 285 285 285 285 285 285 283 283 283 283 282 281 280 282 285 285 286 286 286 286 284 282 284 284 282 281 278 274 273 271 270 270 270 269 268 268 269 270 268 268 267 267 265 265 266 265 265 264 263 264
279 278 277 277 278 277 278 279 279 279 279 280 280 281 281 281 280 281 280 280 279 278 278 278 277 277 277 277 277 279 280 282 283 284 284 285 285 285 285 285 285 286 284 283 283 282 283 284 285 285 286 286 286 285 284 283 284 283 282 280 277 273 271 270 269 268 267 267 267 267 269 269 266 266 266 265 264 265 263 264 263 262 260 261 262
278 277 276 277 277 278 278 277 277 278 279 281 282 282 281 281 280 280 280 279 279 278 277 277 277 277 276 277 277 278 279 281 282 283 284 284 284 285 285 285 285 285 283 283 283 285 285 286 286 285 285 284 280 277 277 279 281 281 280 277 272 271 269 268 268 267 266 266 267 265 264 265 265 264 264 263 264 262 261 261 260 260 259 260 259
278 277 277 277 276 277 278 277 277 277 278 280 281 282 282 281 280 280 279 279 278 278 278 277 277 277 276 276 277 277 278 279 281 282 282 283 284 285 285 284 284 284 283 283 284 284 284 283 282 281 280 280 279 279 279 280 278 276 274 272 270 268 268 266 265 265 265 264 263 261 262 262 263 262 263 262 259 259 261 261 258 258 260 258 258
278 277 277 277 277 278 278 279 278 277 278 280 280 281 281 281 280 280 279 279 278 278 278 277 277 277 276 276 276 277 277 278 279 281 282 282 282 283 283 282 281 281 280 280 280 279 279 281 280 277 277 276 275 273 273 273 273 272 269 269 267 269 271 270 268 264 262 261 261 260 259 259 258 258 259 258 257 258 259 259 259 257 259 257 256
278 277 277 278 278 279 279 279 279 279 279 279 280 281 281 281 281 281 281 281 280 279 279 279 279 279 278 276 276 276 276 277 278 282 280 283 281 282 281 280 280 279 279 280 277 277 276 275 274 274 273 273 272 272 271 270 270 269 267 266 264 263 262 262 261 260 259 260 259 259 258 256 257 257 257 256 257 257 257 255 257 255 256 255 255
278 278 279 279 279 279 279 280 280 280 280 280 280 280 282 283 282 281 280 282 283 283 282 280 280 279 278 277 277 276 276 278 281 283 283 284 284 283 283 282 281 280 281 281 278 275 274 274 274 273 272 272 271 271 270 270 269 267 265 269 264 262 261 260 259 259 260 260 259 258 257 256 254 255 255 256 255 255 257 261 254 255 254 253 253
279 279 280 279 280 280 280 280 280 280 280 280 280 279 279 281 283 283 283 283 283 283 283 282 282 281 279 276 278 281 280 281 283 283 284 284 284 283 283 283 282 282 282 278 275 274 273 272 272 272 272 272 271 271 270 269 268 266 263 262 261 263 261 259 257 259 259 258 257 256 256 255 255 255 254 256 256 254 252 255 254 253 253 253 253
279 280 280 280 281 281 280 280 280 279 279 279 279 279 279 278 280 283 284 283 283 283 283 283 283 282 281 280 278 279 281 282 283 283 283 284 284 284 284 284 284 283 282 280 274 272 273 272 272 272 272 271 271 270 269 268 265 264 262 260 259 259 260 257 258 256 256 256 255 255 254 254 253 255 254 255 257 252 253 253 251 252 253 252 253
280 281 281 282 282 281 280 279 279 279 278 278 278 279 278 278 278 278 282 284 284 284 284 284 283 283 282 282 282 281 281 283 283 283 283 283 284 284 284 284 284 284 282 276 272 272 272 272 272 272 272 271 269 268 265 265 263 261 262 262 260 259 259 259 260 257 256 255 254 254 254 255 255 255 256 255 253 251 253 253 251 251 252 251 252
283 282 282 282 281 281 280 280 279 279 279 279 278 278 278 278 278 278 278 279 280 282 283 283 283 283 283 282 282 282 283 283 283 283 283 283 283 283 283 282 283 283 279 273 273 272 272 272 273 272 271 269 267 266 263 261 261 260 259 260 258 258 257 256 258 256 256 256 253 254 255 252 253 249 250 250 252 252 251 252 251 251 249 250 251
283 280 279 279 281 280 280 279 279 279 278 278 277 277 277 277 277 277 277 277 277 277 277 279 282 282 281 282 283 283 283 283 283 282 282 282 282 282 282 279 278 278 276 271 271 272 272 272 272 271 269 267 266 265 263 260 260 259 259 257 257 257 257 256 255 256 253 251 252 251 252 252 250 252 251 250 250 249 250 251 250 251 250 250 251
281 280 280 280 280 279 279 279 279 278 277 277 276 276 276 276 276 276 276 276 276 276 276 277 278 281 282 282 282 282 282 282 282 282 282 282 282 282 278 277 276 275 273 272 272 270 269 268 268 265 265 263 262 261 261 261 259 259 257 258 257 255 255 254 255 254 253 252 251 253 254 249 251 250 247 249 249 250 249 250 250 252 252 251 252
280 280 280 279 279 278 278 278 278 278 278 276 276 276 276 276 276 276 275 276 275 276 276 277 278 278 280 279 281 281 282 282 282 282 282 282 283 278 274 275 273 271 270 269 268 266 267 263 263 262 261 262 260 260 258 258 256 256 258 255 255 255 254 253 253 255 252 250 250 251 249 248 248 248 250 250 251 250 249 251 251 253 254 254 256
280 280 280 279 279 279 278 278 278 277 276 276 276 276 276 275 275 275 274 274 274 275 275 276 276 275 275 276 280 279 280 281 282 281 281 278 272 270 269 267 267 268 267 263 262 263 262 258 258 262 258 259 259 256 257 255 255 255 255 253 253 253 258 257 258 253 252 251 249 247 249 248 246 247 251 250 249 249 250 252 250 249 251 253 252
279 279 279 279 279 279 278 277 276 276 276 276 276 275 274 274 273 273 273 273 274 274 274 274 274 273 272 273 274 276 276 274 272 269 267 266 265 265 265 263 261 260 259 259 258 258 258 257 255 255 256 255 257 255 255 254 253 253 253 253 252 252 256 252 251 251 252 251 249 247 248 247 245 246 249 249 249 249 249 249 250 250 249 250 250
278 278 278 279 278 278 277 276 276 275 275 275 275 274 273 273 273 272 272 273 273 273 273 272 271 270 270 271 271 272 272 270 268 266 265 265 263 260 261 261 259 260 259 257 256 255 256 254 254 254 254 253 253 253 252 253 253 252 252 253 253 253 253 252 251 250 252 249 249 247 247 247 246 246 246 248 248 248 248 249 250 251 250 249 250
277 277 275 278 277 276 274 275 275 275 275 275 274 274 273 272 272 272 272 272 272 272 271 271 269 269 270 271 273 272 269 267 265 263 263 261 258 256 256 256 257 255 255 255 254 253 253 253 251 251 251 251 251 252 252 251 251 251 252 252 252 252 250 249 250 250 249 249 249 248 247 247 248 248 249 249 254 252 250 251 251 250 251 251 251
276 276 276 275 275 275 274 274 274 273 273 272 273 273 272 271 271 272 271 271 271 271 270 268 268 268 271 273 273 271 264 260 259 258 256 255 254 252 252 252 252 253 254 254 254 253 252 252 251 251 252 251 251 251 251 251 251 252 253 252 253 252 251 251 250 249 248 249 248 249 247 248 248 249 250 255 249 249 249 249 249 249 249 249 250
274 274 274 273 274 274 274 273 273 273 273 272 272 269 270 271 270 270 270 270 270 269 267 266 267 268 271 273 271 267 260 258 258 256 254 253 252 252 252 251 249 249 250 249 250 252 253 252 251 251 251 253 253 253 254 254 253 253 252 252 253 253 253 251 249 249 247 248 248 250 249 249 251 249 247 249 249 248 249 249 249 249 249 248 248
273 272 272 272 272 271 271 272 272 271 271 269 269 269 269 269 269 269 269 268 267 267 266 266 266 268 269 268 264 260 257 257 255 255 254 253 253 252 250 249 250 250 249 249 248 250 251 251 250 248 248 249 250 250 252 252 253 253 253 253 253 252 252 251 251 249 249 250 250 250 250 249 250 249 250 251 247 248 248 248 248 249 248 247 247
272 272 271 271 270 271 270 270 270 269 267 267 268 267 267 268 268 267 267 266 265 264 264 264 266 266 264 262 261 259 256 255 254 254 254 253 252 251 249 249 250 250 249 248 247 248 249 250 250 249 249 249 249 250 251 251 252 254 254 254 254 254 254 253 252 250 250 249 251 250 250 250 250 250 250 250 250 248 249 248 248 251 249 248 248
271 270 270 270 269 268 268 268 266 267 268 267 267 266 266 266 266 265 265 264 263 263 263 263 264 264 263 261 258 257 255 255 254 253 252 251 251 250 249 249 249 249 249 248 248 248 249 250 251 252 252 252 251 251 252 251 252 252 252 253 254 255 255 252 249 249 249 249 250 250 250 250 250 250 251 249 249 249 248 247 246 248 248 248 248
270 269 268 268 267 266 265 265 266 266 266 266 265 264 264 264 264 263 262 262 262 261 262 262 263 262 261 260 258 256 255 255 254 254 253 253 252 251 250 249 250 249 248 248 248 250 249 250 250 251 252 251 251 252 252 252 251 252 251 252 253 252 250 248 249 249 250 250 251 250 251 251 252 251 252 251 248 249 249 249 248 248 248 249 248
268 268 267 266 266 266 265 265 264 263 264 263 263 262 262 262 262 261 261 260 260 260 260 260 261 260 259 258 257 256 255 254 253 253 252 252 252 251 251 251 251 252 251 250 249 249 249 249 250 250 250 251 251 252 252 252 252 252 251 252 251 251 251 251 249 250 249 249 250 250 251 251 251 249 248 249 247 248 248 249 249 248 248 248 249
267 266 266 265 265 265 265 264 263 264 263 262 261 261 261 261 260 260 259 259 259 259 260 259 258 258 258 257 256 255 254 253 254 253 253 252 252 252 252 252 252 251 251 251 251 250 250 249 250 250 251 252 252 252 253 252 252 252 252 251 251 252 252 253 252 250 252 251 250 250 249 250 249 248 249 248 249 248 249 248 247 249 248 249 248
265 265 264 264 263 263 263 263 263 262 261 261 261 260 259 259 259 258 258 258 258 258 258 258 257 257 257 256 255 255 255 255 254 254 253 252 253 252 253 252 251 251 251 251 251 251 250 249 250 251 251 252 252 252 253 253 253 253 252 252 254 255 254 254 253 253 252 251 250 250 249 249 247 247 248 248 247 247 247 248 248 249 249 248 248
263 263 263 263 262 262 262 262 261 261 261 260 260 259 259 259 258 258 258 258 258 257 257 257 257 256 256 256 256 256 255 255 255 255 254 254 252 252 251 251 251 250 250 250 250 251 251 251 252 252 252 252 253 253 253 253 253 253 254 255 255 256 256 255 254 254 254 252 248 248 248 248 248 247 247 247 246 247 248 249 248 248 247 248 248
Wind_Speed
9 10 8 10 9 11 10 8 8 7 7 8 9 8 7 7 7 6 5 7 7 7 8 8 8 8 8 8 8 8 7 6 5 5 6 6 5 5 5 6 8 6 6 5 4 8 9 10 9 7 7 9 7 6 6 5 4 4 4 6 6 5 6 6 8 6 1 1 2 3 3 5 3 4 4 3 3 4 5 6 6 5 6 6 7
10 9 8 9 10 10 9 6 7 6 7 7 7 7 6 7 7 6 6 6 7 8 8 7 7 8 8 8 7 6 6 6 6 6 6 6 5 6 6 7 7 7 7 8 7 6 7 8 7 7 6 9 8 6 6 8 7 6 4 7 7 5 3 6 5 6 4 0 3 3 3 2 2 2 5 3 5 4 6 6 5 6 7 7 6
7 7 8 8 9 7 7 7 7 7 8 7 7 7 6 6 6 7 7 6 6 7 8 8 8 8 7 7 7 7 7 7 6 7 7 7 7 6 7 8 9 10 10 10 10 8 8 8 8 7 6 8 7 6 5 7 6 7 5 5 8 6 4 6 7 4 7 3 2 3 2 1 3 2 2 4 5 4 5 6 7 6 6 6 6
6 5 6 7 7 7 8 7 8 8 9 8 8 7 7 6 6 7 7 6 7 5 6 7 7 7 7 7 7 7 7 7 7 8 8 8 8 8 8 8 7 8 9 9 10 10 10 9 8 8 7 8 8 7 6 7 7 6 6 4 8 7 5 5 4 5 3 6 1 4 2 3 2 2 3 3 5 6 6 6 5 7 7 4 5
6 6 6 7 7 8 8 7 9 9 9 8 8 7 7 7 6 7 6 6 6 6 5 5 7 7 8 8 9 8 9 8 8 8 7 7 8 7 8 7 7 8 8 9 10 11 10 11 11 9 9 9 6 7 7 8 7 7 7 6 7 6 5 5 5 4 6 6 3 1 3 1 2 2 2 3 4 4 5 6 7 7 7 5 5
6 6 6 7 8 9 9 8 10 11 9 8 9 8 7 7 7 6 7 8 6 6 7 6 7 8 8 8 8 8 7 8 9 9 8 7 7 7 6 7 7 7 7 8 10 10 11 11 11 12 12 13 11 9 8 9 7 8 8 7 7 7 7 5 5 5 5 5 5 2 1 3 0 2 3 3 5 6 6 6 4 5 6 7 5
7 7 7 7 8 10 10 11 10 9 9 8 7 7 7 7 7 8 7 8 8 7 6 7 6 7 8 7 8 8 8 8 7 7 7 7 8 8 8 7 7 7 8 9 9 9 9 11 12 12 12 12 13 12 10 10 8 8 9 9 7 8 7 6 6 6 5 5 2 3 3 1 2 3 3 3 4 4 5 7 6 4 5 6 7
10 9 8 9 10 12 12 9 8 9 8 7 8 8 8 7 7 6 6 7 8 8 8 8 7 7 7 7 7 7 7 7 7 7 7 8 8 8 8 8 8 7 6 8 9 9 9 10 11 11 11 10 11 10 11 11 9 9 7 8 8 8 6 5 5 4 4 4 3 3 2 2 1 2 2 1 2 3 4 4 8 8 7 4 3
9 11 11 12 14 13 8 7 7 7 7 8 8 8 8 7 7 7 6 6 6 7 7 8 8 7 6 7 7 7 7 7 7 8 9 8 8 8 8 9 9 9 8 8 8 8 9 9 10 9 10 11 13 12 10 10 10 9 7 7 7 7 6 5 5 4 4 3 2 2 2 1 2 1 2 3 4 5 3 2 6 6 7 9 4
10 9 11 14 14 10 8 7 8 7 8 9 9 8 8 8 8 7 7 7 7 6 6 7 7 8 8 7 6 6 7 6 9 14 11 9 9 8 8 8 9 9 9 9 8 8 10 9 9 11 12 14 14 13 11 11 9 11 11 9 9 8 7 7 6 5 5 4 4 3 2 2 3 2 3 4 3 3 4 4 7 8 8 9 6
10 10 12 13 9 6 8 9 8 9 9 8 8 8 8 7 8 7 7 7 7 7 7 8 7 7 8 8 8 7 7 6 12 11 12 12 9 8 9 8 8 9 9 10 10 9 8 9 9 11 13 14 14 16 13 12 10 10 13 12 10 12 9 7 6 6 6 4 3 2 2 3 4 3 4 3 2 2 3 3 5 7 7 9 12
12 13 14 12 9 9 9 7 8 8 7 9 8 8 7 8 8 8 8 8 6 6 8 8 8 7 7 7 8 8 7 8 12 13 13 14 11 9 8 8 8 9 9 10 10 10 10 9 8 8 9 11 10 11 12 13 13 13 13 12 10 8 8 6 7 6 5 5 4 3 3 4 3 3 2 1 2 2 2 3 5 6 7 8 8
10 11 10 8 7 6 5 7 8 7 8 7 7 7 8 8 8 8 9 7 6 8 8 8 8 7 8 8 8 8 6 10 13 16 15 15 14 12 7 9 9 8 10 10 11 11 10 10 9 7 8 13 11 9 9 9 10 12 11 10 9 8 7 8 7 5 5 5 4 3 4 2 2 3 1 0 2 4 4 4 5 5 6 8 8
10 11 9 8 7 7 7 8 9 9 8 8 8 9 9 10 9 8 7 7 8 7 6 8 7 8 8 8 7 6 7 11 16 15 14 16 15 11 7 8 8 10 11 11 11 12 13 13 11 10 9 9 8 9 8 8 8 7 6 5 4 5 6 6 6 8 6 5 5 4 4 3 3 1 2 2 3 4 4 5 5 6 7 8 8
9 9 9 7 6 8 9 10 9 8 8 9 9 10 10 8 8 8 8 9 9 9 9 8 7 7 6 5 6 6 6 12 15 16 16 15 14 10 7 7 8 8 10 11 12 12 12 12 13 13 12 10 9 10 10 9 8 7 6 5 4 3 2 2 2 2 3 3 5 4 3 2 2 2 4 4 5 5 4 5 5 6 8 8 7
8 7 9 9 9 9 8 8 6 5 6 6 7 7 6 8 9 7 6 6 5 4 4 4 6 6 6 6 5 5 5 12 15 17 18 16 15 8 8 8 8 8 8 9 9 8 9 10 11 11 11 10 12 17 13 9 9 9 7 5 4 3 2 3 4 4 4 3 3 3 2 4 6 4 3 3 3 3 3 3 3 5 7 8 8
9 9 9 8 8 7 7 8 8 8 8 9 9 8 8 7 6 6 7 6 7 6 7 6 6 7 7 6 7 5 5 10 13 14 16 15 11 7 8 8 8 8 8 9 9 9 8 9 10 11 10 9 15 17 16 13 8 9 8 6 5 4 2 1 4 6 7 6 5 4 3 2 5 6 6 8 6 4 3 4 5 4 6 6 8
7 6 7 6 7 6 7 8 8 8 8 9 9 7 6 5 7 7 8 8 7 7 6 5 5 5 7 7 7 7 6 8 12 13 14 14 10 8 7 8 8 9 8 8 8 8 9 12 11 11 10 9 16 16 16 11 8 8 8 7 6 4 2 2 2 2 4 2 2 1 2 3 5 5 7 7 8 6 4 4 5 4 5 6 8
6 8 7 5 5 6 6 7 8 8 9 9 8 9 9 9 7 7 6 6 6 6 6 6 5 5 5 6 8 8 6 8 14 14 14 15 12 9 9 8 9 8 9 8 7 7 7 7 9 9 9 11 18 16 15 9 8 7 7 7 6 4 3 4 4 2 1 2 1 1 2 3 2 1 1 7 12 12 7 5 5 5 5 5 6
6 5 4 5 5 6 6 7 7 8 8 7 7 7 7 7 7 7 6 6 6 6 6 6 7 5 5 6 6 6 7 6 9 15 13 15 13 9 8 10 10 10 9 10 9 6 7 7 7 11 12 15 16 16 14 11 7 7 6 6 6 4 4 4 3 4 2 3 2 2 2 1 0 2 6 8 7 8 7 5 4 3 4 5 5
4 5 5 5 5 6 6 7 8 6 7 8 7 6 7 8 7 7 7 6 6 6 6 6 6 5 4 4 5 4 5 6 8 12 13 14 14 11 7 8 9 10 9 10 10 9 7 6 5 10 12 14 14 15 15 13 9 6 6 5 5 4 6 4 5 7 4 3 3 1 2 4 6 6 5 4 4 3 4 4 3 3 3 3 5
4 4 4 5 5 5 5 4 6 7 6 8 8 7 6 7 8 8 7 8 9 8 7 6 6 5 4 4 4 4 4 8 6 12 14 15 15 13 8 8 10 11 10 9 9 9 8 7 6 10 14 14 14 14 14 13 12 6 6 8 8 9 8 5 4 5 5 5 4 5 6 5 5 5 4 3 3 4 3 3 3 3 3 2 3
3 3 4 4 4 5 5 6 6 6 7 8 9 8 7 8 8 8 9 8 9 8 7 7 7 6 5 4 4 4 5 6 10 9 14 15 16 15 13 10 15 11 11 10 10 9 7 7 7 12 14 14 14 14 13 13 10 6 10 10 13 14 8 6 7 6 6 5 5 5 2 4 4 3 3 3 3 3 2 2 2 2 1 1 2
2 3 3 4 4 4 5 5 5 6 8 8 8 9 8 8 8 7 8 8 8 8 6 6 7 7 7 5 4 4 4 5 8 10 11 15 15 15 16 17 15 10 10 9 8 8 8 7 9 15 15 15 14 13 13 11 8 12 11 14 13 10 7 7 6 6 6 6 5 4 3 3 4 4 2 2 1 1 2 2 1 3 2 3 4
4 4 4 4 4 4 4 5 6 6 7 9 9 8 8 9 8 6 7 7 7 8 7 7 7 7 7 6 6 5 5 5 6 9 13 14 15 15 15 17 16 13 9 7 8 7 10 14 16 16 16 15 16 15 11 11 13 13 14 14 10 6 7 6 7 6 6 5 5 4 5 4 3 2 1 2 3 5 3 4 4 4 4 4 3
4 4 4 4 4 5 6 4 5 6 6 6 8 8 9 8 8 8 7 7 7 8 8 8 7 7 7 7 6 5 5 5 6 7 9 10 10 14 15 15 13 10 10 9 12 16 18 18 20 19 16 12 9 6 6 7 13 14 14 11 6 7 5 6 5 6 6 4 5 5 3 2 1 3 3 4 6 3 2 2 1 4 3 3 2
4 3 4 4 4 5 7 6 5 5 4 5 5 6 6 6 7 8 8 9 9 8 8 9 9 8 7 7 6 6 6 6 7 7 7 8 8 10 12 11 14 14 10 11 13 12 15 13 10 10 9 12 11 9 8 8 8 7 7 6 6 6 6 5 6 6 6 6 6 4 3 2 2 3 5 5 4 2 1 1 1 2 1 3 0
6 5 5 4 5 6 7 8 9 7 6 6 6 5 5 6 7 8 9 9 9 8 8 8 9 10 9 8 8 7 6 6 8 9 9 8 8 8 8 9 9 9 10 9 9 10 10 10 11 7 7 7 7 5 5 5 6 7 5 5 5 6 7 8 7 5 4 5 5 4 3 3 4 3 3 3 2 2 1 4 1 3 3 2 2
4 5 5 5 6 5 7 7 8 8 8 7 6 7 8 8 7 5 2 4 6 10 11 9 8 8 9 11 11 9 7 9 8 8 8 12 10 10 9 9 9 8 11 14 10 8 8 8 7 7 7 7 6 6 6 6 6 5 5 5 6 6 4 5 6 6 6 6 5 5 6 5 4 2 3 3 1 2 3 3 3 3 4 3 2
5 6 6 6 6 6 6 7 7 8 8 8 7 5 5 5 4 6 6 6 6 3 4 7 8 8 9 7 8 11 12 9 11 16 17 17 17 15 13 14 12 12 16 19 11 9 8 8 7 8 7 7 8 7 7 6 6 6 5 5 6 5 4 4 6 5 4 5 5 6 4 4 3 3 3 2 1 2 3 4 2 2 3 3 3
6 6 6 6 7 6 7 7 7 7 7 7 7 8 7 5 7 7 6 8 8 9 9 9 10 9 8 8 5 6 9 14 18 17 18 18 18 17 17 16 18 19 19 13 8 8 8 8 7 7 7 7 7 7 7 7 6 6 6 5 3 5 5 5 4 5 5 5 4 4 4 4 4 2 2 1 1 2 2 2 1 2 2 1 3
8 7 6 6 7 7 6 7 7 8 7 7 8 9 8 8 6 8 12 12 12 13 12 13 14 13 13 11 9 6 13 17 18 19 18 19 19 19 19 19 19 20 19 15 8 7 7 8 8 8 8 8 7 7 6 7 7 7 7 6 4 3 6 5 4 5 5 5 4 5 4 4 4 2 1 1 2 1 0 2 2 2 2 2 2
8 8 7 7 7 7 7 7 7 8 9 9 8 8 9 9 10 8 7 11 13 13 13 14 15 15 15 14 13 12 13 17 19 19 18 19 20 19 20 21 21 21 17 9 8 8 7 7 8 7 7 7 7 7 7 7 7 7 7 7 6 4 5 4 4 5 5 4 4 4 3 3 2 4 3 2 2 0 0 1 1 1 1 1 3
8 8 8 9 8 7 7 7 8 8 7 7 7 8 7 7 8 8 9 9 8 9 11 13 14 14 15 15 15 17 19 19 20 20 20 19 19 19 18 14 18 19 12 8 8 8 7 7 7 7 6 6 6 6 7 6 7 7 5 5 5 5 5 4 5 4 4 4 5 3 3 3 4 2 1 1 0 1 0 1 0 1 3 2 2
5 6 8 8 7 7 6 6 6 6 6 7 7 7 7 6 6 7 7 8 9 8 7 8 10 12 11 12 17 19 20 20 19 19 19 18 19 20 19 12 12 10 6 4 6 7 8 8 8 7 7 7 7 7 7 6 7 7 7 6 6 5 5 4 5 5 5 5 4 4 4 4 3 3 3 1 0 1 1 1 1 1 1 2 2
6 5 5 7 6 5 5 5 4 5 6 6 5 6 6 7 6 5 5 6 7 8 7 6 6 10 15 14 19 19 20 20 19 19 19 20 20 21 12 9 8 7 7 6 6 6 6 6 6 7 7 7 7 7 7 7 7 6 6 7 7 6 6 5 6 5 4 6 5 3 3 3 3 3 3 1 2 2 1 1 1 1 1 1 2
6 6 6 6 6 6 6 5 5 5 5 5 6 7 7 7 5 6 6 7 7 6 8 9 9 9 9 7 13 17 19 18 19 18 18 20 18 9 5 7 8 8 7 7 7 6 7 7 7 7 7 7 7 6 6 6 6 5 5 6 6 6 6 6 5 6 5 5 4 5 5 6 4 3 3 2 1 1 1 1 1 2 3 4 5
7 7 7 7 8 8 8 8 8 8 7 6 6 7 7 7 7 7 7 8 7 8 9 8 6 8 10 9 8 8 12 16 18 15 13 9 7 6 6 6 6 8 8 7 7 7 7 6 6 7 7 6 6 6 6 6 6 6 7 5 4 5 6 6 6 6 5 6 6 4 4 4 4 4 4 3 3 2 2 2 1 2 2 4 1
7 9 10 11 9 8 8 8 8 8 8 7 7 7 7 8 8 7 7 7 8 8 7 8 8 8 8 6 7 8 10 8 8 7 6 5 4 5 6 6 6 6 6 7 5 5 6 7 5 3 5 5 6 6 6 7 5 6 5 6 5 4 5 5 6 6 6 7 6 5 5 5 4 4 4 5 3 3 3 2 2 2 3 4 4
7 7 9 12 7 8 7 7 8 8 7 8 8 7 8 8 8 8 8 8 8 8 7 8 8 7 5 6 7 8 9 8 7 6 6 6 6 5 6 6 7 7 7 6 5 6 6 4 5 6 6 6 6 6 5 6 6 6 6 7 7 7 7 7 7 7 7 7 7 7 5 6 5 4 4 4 4 3 3 4 3 2 2 2 4
6 7 8 9 8 7 7 8 8 9 8 7 7 7 8 7 7 6 8 8 8 8 7 6 7 6 5 6 8 5 6 7 6 5 5 6 5 5 5 5 6 5 5 6 6 5 5 6 5 5 5 5 5 6 6 6 6 6 6 6 5 6 6 6 6 7 6 6 6 6 4 5 5 5 5 4 4 3 2 1 1 2 2 1 2
5 6 8 7 9 9 9 7 6 7 8 6 8 8 7 7 8 8 7 8 7 7 7 7 6 5 7 13 11 11 7 4 4 5 4 4 4 4 4 4 3 4 6 6 7 6 6 6 5 5 6 5 7 5 6 5 6 6 6 6 7 6 7 7 7 6 6 6 5 6 5 4 4 4 4 4 3 3 2 2 2 2 2 2 2
8 7 6 5 7 8 8 8 8 8 7 7 6 5 6 7 7 5 6 5 7 6 7 7 6 5 6 11 10 10 7 5 5 5 4 4 4 4 4 4 4 4 5 5 5 6 6 6 6 5 6 6 6 7 7 7 6 6 6 6 7 7 7 6 5 6 5 5 4 4 4 4 4 4 4 3 3 2 3 2 2 2 2 2 2
9 8 7 7 6 6 4 6 7 6 6 6 7 5 6 6 7 7 7 7 7 6 7 7 7 7 6 7 8 6 6 6 6 6 6 5 5 5 5 5 5 6 5 5 4 5 6 6 5 4 3 4 4 3 4 5 6 6 6 6 6 7 6 6 7 6 6 6 5 5 5 4 4 4 5 5 4 4 3 2 3 2 2 3 3
8 8 9 8 8 8 8 6 6 7 6 6 6 6 4 6 6 6 6 6 5 6 6 6 6 6 5 6 6 6 6 6 6 6 6 6 6 6 5 5 5 6 6 4 4 5 5 6 5 5 4 3 3 4 5 5 5 5 6 7 6 7 7 7 7 5 6 5 5 5 5 6 5 6 6 5 4 4 4 4 4 4 3 3 2
7 8 8 9 8 6 7 7 4 7 8 8 8 7 6 6 6 6 5 5 5 7 6 6 6 6 5 5 5 5 5 6 6 6 6 6 6 6 5 5 5 5 5 5 4 4 5 6 5 5 5 4 4 4 4 4 5 5 5 5 6 6 6 5 3 5 5 5 6 5 6 5 5 6 6 6 6 5 5 4 3 4 5 4 4
6 7 7 7 8 7 6 6 7 6 6 6 6 7 7 6 7 6 5 6 7 5 7 6 6 6 6 5 5 5 5 6 6 6 6 6 5 6 5 5 5 5 4 4 3 5 4 5 4 5 4 4 4 4 4 4 4 5 4 5 5 5 3 3 5 5 6 6 6 5 6 6 6 5 6 5 4 5 4 6 5 5 5 5 5
5 5 6 7 8 9 8 8 8 7 6 6 6 5 5 6 6 6 6 7 7 6 7 6 6 6 5 5 5 5 5 6 6 6 6 6 5 5 5 5 5 5 5 5 3 4 4 3 3 3 4 4 4 5 5 5 5 5 5 5 5 5 5 5 5 5 5 5 5 6 6 6 5 5 5 5 5 5 5 6 4 4 5 5 6
6 7 7 7 7 8 7 8 7 8 8 7 7 7 5 6 6 6 6 7 7 7 7 7 6 6 5 5 5 5 5 5 6 5 5 4 4 4 5 4 4 5 5 5 4 4 3 4 3 4 4 4 5 5 5 5 5 5 6 6 6 8 9 9 6 6 6 5 5 5 5 5 5 5 5 5 6 5 6 4 4 5 4 4 4
7 7 8 7 7 6 5 5 7 7 6 6 7 7 6 6 6 6 6 6 6 6 6 6 7 6 7 6 5 5 5 5 5 5 5 4 4 4 4 4 4 4 4 3 3 4 3 3 4 4 4 5 5 5 5 5 6 6 6 6 10 12 11 11 10 8 7 5 6 6 6 6 5 5 6 6 5 6 6 6 5 6 5 5 5
7 7 7 7 7 7 7 7 6 7 7 7 7 8 7 7 6 6 6 6 7 6 6 6 5 5 5 5 4 5 5 5 4 4 4 4 4 4 4 4 4 3 2 2 3 3 3 3 4 4 4 5 5 6 6 6 6 6 7 10 11 11 12 10 8 10 10 6 5 5 6 7 6 7 6 5 5 6 8 6 6 6 5 6 5
Wind_Direction
204 209 195 206 199 204 206 203 208 204 204 204 207 206 201 197 195 192 175 193 175 180 181 184 185 189 189 194 193 191 193 194 190 178 185 190 187 189 173 176 176 178 161 162 165 167 170 164 164 157 149 140 143 133 131 132 123 124 138 129 125 139 129 115 125 124 34 15 94 122 124 125 147 182 210 229 254 243 232 246 253 251 251 251 258
212 208 205 203 205 207 204 204 203 202 205 209 212 208 202 199 194 177 191 193 180 182 183 182 185 183 184 190 191 191 194 191 180 173 176 177 180 179 176 176 177 168 164 168 165 167 155 150 152 150 155 141 141 144 144 140 139 133 139 128 123 115 121 111 123 124 151 85 64 73 80 118 110 161 188 223 252 249 250 251 254 243 249 249 249
220 212 209 208 211 206 201 204 199 204 205 209 213 209 207 201 186 189 194 189 194 185 181 179 181 181 185 185 182 185 187 185 182 176 181 180 180 185 183 181 177 171 175 177 170 157 153 156 156 151 143 137 142 139 136 135 137 131 136 128 115 114 97 119 123 117 146 153 139 105 104 80 153 208 209 228 248 247 256 254 246 253 244 243 252
228 223 220 220 210 204 208 202 200 203 207 206 208 206 202 201 190 191 191 181 186 190 179 178 174 177 180 180 182 184 185 185 183 188 188 186 184 184 182 186 182 178 177 169 164 163 160 150 155 153 148 140 142 140 141 134 127 124 120 105 104 103 101 96 107 125 146 143 177 130 150 123 262 239 250 244 244 259 241 262 262 258 261 252 245
219 225 221 223 217 212 213 202 205 206 207 200 205 197 198 193 188 189 178 183 186 174 179 172 173 174 180 183 184 188 190 186 186 192 193 191 188 182 181 182 179 177 174 170 167 162 160 160 155 152 149 141 145 148 156 139 138 132 128 120 108 107 96 102 103 105 132 152 151 97 134 175 206 240 242 257 273 255 257 252 257 264 274 251 242
215 216 218 218 223 221 217 208 212 208 204 201 198 194 193 189 187 192 179 183 178 182 176 179 178 183 188 190 188 189 185 186 188 191 188 181 181 179 177 177 176 169 169 169 168 166 161 158 159 159 160 158 161 157 151 140 133 131 127 122 119 115 115 113 114 119 119 133 143 141 183 178 231 233 236 222 251 279 277 264 262 260 263 275 247
209 214 215 218 224 227 218 217 210 207 203 200 193 192 192 190 185 189 187 181 177 180 184 179 187 184 191 185 186 183 185 186 186 182 178 179 179 176 174 175 171 169 170 170 168 164 161 159 162 166 167 163 158 159 150 142 140 139 139 134 132 129 132 139 139 132 137 134 144 170 175 245 178 253 262 231 257 253 269 293 282 230 246 265 291
193 202 207 219 227 230 223 217 211 207 200 195 195 193 189 188 191 188 182 185 181 182 181 183 186 187 185 185 185 178 179 181 179 179 181 181 177 178 174 172 167 164 164 167 165 160 159 161 166 170 169 163 156 153 151 144 141 137 144 134 137 137 142 144 139 141 142 145 165 161 152 154 246 232 253 295 281 283 235 244 288 303 296 274 243
205 200 201 211 222 225 216 215 212 205 198 196 194 192 188 186 186 186 187 189 185 184 182 182 176 181 178 180 178 178 182 187 184 182 181 180 176 173 173 169 167 164 163 162 160 155 156 163 167 168 162 156 155 151 151 146 143 143 153 145 146 145 143 148 149 146 147 149 161 140 137 174 227 234 299 255 251 265 271 282 287 296 304 308 313
208 215 215 220 223 209 200 202 204 197 195 198 195 186 184 182 181 185 189 186 182 177 177 179 180 179 177 180 179 182 190 189 189 185 180 174 171 168 167 172 169 165 158 153 153 157 158 159 162 156 149 150 152 153 153 157 155 151 159 157 154 149 153 153 158 160 149 161 183 153 151 180 220 214 216 240 253 284 302 304 303 312 316 303 304
212 211 222 230 231 205 200 206 193 198 200 191 188 185 182 176 180 184 184 180 178 176 175 180 184 182 183 181 183 190 193 191 185 177 172 165 163 166 168 168 165 157 157 155 156 157 158 156 152 152 151 154 156 153 150 148 150 150 156 163 163 156 153 155 163 159 157 166 160 150 144 182 227 211 225 243 262 279 296 309 306 314 317 324 318
211 215 221 223 213 209 209 196 195 203 190 197 190 186 174 175 180 181 178 178 178 171 181 187 185 184 185 187 189 192 197 187 178 174 171 171 166 167 166 164 164 160 158 158 156 155 153 149 147 152 160 157 150 148 147 151 154 156 160 164 165 159 152 147 152 153 162 151 156 173 148 211 211 225 250 250 280 335 302 306 296 301 306 304 306
219 226 231 226 222 216 200 197 203 199 200 192 186 178 179 179 181 178 184 178 164 178 188 181 188 186 185 187 194 193 193 183 182 183 178 171 167 166 167 162 160 162 160 159 157 155 154 150 148 152 153 150 146 146 145 146 147 149 150 151 154 150 133 110 115 137 149 137 142 178 197 182 201 247 211 139 346 313 299 292 292 290 291 291 294
216 226 225 221 212 201 198 198 202 201 188 185 182 182 182 189 183 178 168 163 172 179 181 186 183 186 187 191 190 188 186 185 186 183 180 173 167 158 160 159 160 159 160 161 162 160 161 156 151 150 152 149 145 146 146 144 146 143 148 152 154 164 159 151 140 137 142 147 158 193 223 162 212 206 271 297 289 281 293 298 307 298 296 290 294
219 223 223 219 203 205 204 203 204 193 186 183 183 186 186 178 172 172 170 171 173 179 181 184 187 185 186 180 176 181 191 188 185 183 183 176 163 149 155 156 157 160 164 167 167 164 162 161 155 152 152 152 158 156 150 154 151 150 149 149 150 149 144 139 140 144 166 167 181 207 209 195 202 227 245 250 246 251 258 264 274 283 281 281 274
226 222 225 215 211 208 202 203 197 184 185 186 186 186 180 173 171 167 163 169 169 161 172 172 176 180 180 172 167 181 192 188 183 184 183 176 161 153 158 158 158 157 155 158 157 155 158 154 148 148 152 155 166 164 159 150 146 144 143 138 135 136 153 170 173 176 173 182 188 187 195 207 218 227 232 231 231 248 251 273 292 285 289 290 291
228 223 225 219 214 204 196 192 191 187 183 181 185 181 173 171 169 160 159 166 166 170 178 178 178 175 175 176 171 174 184 178 169 170 175 158 150 157 157 153 151 152 153 152 149 150 156 156 149 150 152 159 168 167 161 148 138 141 140 140 142 141 173 204 209 219 219 219 216 215 241 299 331 328 324 318 319 324 346 318 280 285 289 292 301
235 231 232 223 213 200 196 190 188 182 178 185 182 177 171 166 168 168 165 164 171 174 166 165 168 170 171 176 174 169 182 181 171 167 159 147 145 150 153 148 150 149 146 148 147 151 158 158 153 151 157 163 171 167 160 144 138 142 141 139 144 150 185 176 183 231 232 214 228 254 291 320 336 338 344 347 330 327 306 307 340 348 328 321 315
231 226 228 213 207 199 193 190 184 179 183 183 174 171 173 173 166 163 165 161 163 153 154 156 155 161 171 167 171 169 175 183 178 175 159 151 149 149 147 147 147 151 147 144 142 144 147 150 149 154 157 165 170 166 158 145 137 148 145 138 143 156 190 168 173 171 95 79 8 70 348 308 274 243 289 5 37 43 38 33 8 14 345 332 325
230 225 216 203 199 192 187 186 183 179 179 169 168 168 154 144 153 153 152 149 147 151 151 151 153 160 162 165 174 173 171 182 181 173 155 152 149 146 149 149 154 152 151 145 140 140 143 146 157 161 156 160 164 163 157 148 139 140 135 134 142 180 190 169 175 147 159 151 167 140 186 214 165 56 55 64 51 38 41 26 23 12 358 340 334
221 214 198 190 190 189 183 182 176 178 171 165 156 149 153 152 148 149 146 141 140 145 147 145 142 144 155 158 159 174 174 172 183 167 149 150 149 144 155 150 147 147 149 150 151 149 150 152 155 157 149 153 159 162 158 148 139 133 139 148 165 182 145 130 132 128 113 102 98 95 80 59 68 86 83 69 64 53 35 24 24 35 36 2 336
203 188 185 185 184 176 173 167 164 157 148 142 144 149 152 149 152 148 146 146 148 146 140 138 135 129 128 139 151 164 171 167 170 159 154 156 157 149 148 156 151 143 144 150 152 153 156 155 155 156 150 155 157 157 157 153 145 137 155 168 187 132 121 123 116 97 97 106 100 85 80 77 85 91 83 66 58 45 31 22 9 28 21 12 345
177 169 164 161 165 163 159 153 147 145 149 152 149 149 148 146 146 144 144 143 143 143 141 141 137 133 129 138 147 156 161 165 163 161 161 160 161 160 149 146 150 146 150 156 160 154 148 149 149 157 155 156 156 155 155 158 155 157 173 151 122 118 117 106 106 103 111 114 102 93 84 115 106 103 88 81 45 38 27 3 24 49 19 2 353
149 144 153 153 146 148 148 144 141 145 148 144 145 145 149 147 144 150 148 146 146 144 145 142 140 143 145 145 146 149 160 158 163 159 162 161 161 159 155 153 156 153 152 153 151 149 146 146 155 161 158 158 156 158 153 140 142 159 145 123 120 113 113 114 115 128 126 115 115 141 168 134 108 93 83 95 80 28 17 7 26 3 34 357 335
152 153 152 152 144 140 133 140 144 143 148 146 145 150 146 148 147 153 148 149 150 150 153 155 155 153 148 151 140 150 157 157 156 161 162 161 158 155 156 157 161 154 146 141 142 144 145 147 152 158 158 157 157 151 136 142 144 139 133 125 120 119 121 134 136 127 124 142 160 144 111 97 120 133 145 107 61 45 45 359 12 3 21 359 341
161 164 157 152 150 143 130 124 131 137 144 151 150 154 154 157 153 154 156 157 156 155 157 159 156 154 158 153 154 151 150 148 154 153 154 155 160 164 163 163 157 136 126 128 134 137 140 143 147 149 149 146 133 125 126 130 135 136 132 123 121 133 142 132 134 133 159 144 124 112 124 121 72 66 69 70 66 58 59 7 34 347 12 346 8
163 162 158 152 144 142 136 135 128 126 130 128 134 144 151 152 153 158 166 163 163 165 165 164 161 158 152 157 150 151 148 150 150 151 152 151 147 146 145 143 133 125 122 131 132 132 136 137 136 129 127 130 130 128 124 129 126 117 116 125 137 137 134 143 143 137 132 121 119 126 129 120 99 62 56 67 62 15 36 30 60 346 3 326 48
170 173 166 160 157 154 144 141 139 139 141 141 142 144 152 160 164 172 175 172 165 169 167 169 169 165 160 157 155 152 158 158 161 157 156 146 142 133 133 134 135 136 132 128 125 127 125 123 121 112 116 109 113 111 113 117 124 131 138 128 118 108 104 97 86 95 110 122 123 104 74 68 76 85 72 78 77 16 18 36 55 360 341 10 14
170 165 166 159 163 164 155 156 153 149 150 147 151 160 165 168 168 170 173 187 187 174 170 172 171 169 162 162 161 164 167 175 176 157 147 148 143 144 142 140 137 134 138 132 120 114 112 113 121 124 130 134 135 142 143 136 134 129 118 106 104 109 116 118 121 128 147 124 115 113 110 96 95 91 100 68 48 28 346 48 360 68 344 28 21
175 179 177 172 168 165 164 162 161 158 154 150 138 109 83 115 144 160 157 141 128 127 169 176 170 162 162 176 177 173 178 166 155 152 148 145 146 143 144 142 139 138 141 135 129 128 134 138 146 147 148 151 153 157 159 156 145 133 135 128 120 107 103 106 119 136 112 104 115 107 120 112 104 103 86 102 357 15 349 53 357 359 40 357 3
183 185 183 184 178 173 170 164 164 155 152 147 142 135 126 98 116 134 144 145 151 156 152 142 146 155 154 157 164 126 127 149 161 158 153 149 149 147 146 145 143 146 140 127 122 138 147 150 154 154 157 157 161 164 161 155 155 144 142 135 132 130 126 124 140 123 113 111 103 110 116 119 123 121 106 118 106 350 6 4 53 10 19 4 355
183 186 185 182 180 180 174 167 159 156 154 152 149 146 138 131 118 143 152 158 160 163 159 154 156 157 162 154 149 146 158 161 162 165 162 160 161 160 157 154 154 152 150 139 131 152 155 154 160 165 163 164 168 164 161 158 159 154 146 137 144 147 141 146 153 122 119 113 117 118 117 121 128 126 131 124 109 49 23 350 3 9 343 355 334
186 183 182 181 183 180 172 169 167 162 159 157 157 152 146 145 141 138 139 154 159 159 153 153 156 159 158 160 159 157 162 164 163 164 167 168 169 170 168 167 166 163 147 138 149 153 161 161 163 166 168 168 166 166 168 163 161 163 162 156 160 167 149 141 120 114 125 139 126 127 131 128 130 123 115 108 116 73 325 338 325 345 9 5 327
200 191 183 179 177 179 178 176 170 170 166 162 156 150 147 145 146 142 139 132 122 128 135 141 146 150 152 154 159 158 159 161 162 163 164 165 166 166 164 164 164 164 154 151 154 160 159 162 165 170 165 162 164 159 161 164 160 158 154 150 145 141 140 122 113 127 124 122 125 136 134 141 141 123 106 108 113 137 62 285 322 6 336 312 301
210 199 184 176 175 175 177 178 173 161 159 157 152 145 140 139 141 145 145 142 139 139 135 130 132 134 141 147 153 155 155 157 159 162 160 157 159 158 154 154 159 164 146 144 151 157 162 165 169 169 166 169 173 168 167 164 158 157 155 148 143 140 137 134 138 136 127 124 131 144 159 156 156 150 150 151 91 359 282 276 295 267 266 298 303
193 186 179 174 160 157 159 166 159 159 158 151 141 131 132 138 142 136 125 125 131 130 120 117 124 133 135 140 147 149 151 153 155 156 157 157 157 157 157 165 159 157 151 160 156 161 153 158 156 168 164 166 162 166 164 165 169 158 154 146 154 154 149 148 150 147 154 146 162 170 149 151 163 140 119 137 164 191 213 230 256 275 264 271 277
181 175 175 167 152 146 144 143 150 154 149 139 139 136 137 135 130 129 130 136 132 128 129 131 129 129 128 130 141 145 147 150 151 152 155 163 160 147 142 158 157 149 154 163 158 154 163 173 164 161 166 162 170 163 157 156 147 141 147 141 147 149 165 163 163 155 153 163 174 167 163 180 166 166 157 179 231 198 217 220 237 264 264 284 306
179 176 174 165 156 157 154 160 157 147 141 146 148 145 142 140 137 141 140 140 144 142 142 136 132 137 140 142 142 146 150 151 152 153 149 118 86 123 136 131 146 157 158 159 165 160 162 162 164 162 167 154 152 151 143 140 144 144 143 143 148 161 165 166 165 163 173 169 174 182 171 185 181 176 164 171 199 216 245 229 227 265 293 295 293
176 174 170 169 169 163 159 154 154 151 149 152 159 155 148 141 139 141 143 144 143 141 134 134 137 135 129 125 122 126 124 134 137 134 120 115 110 110 137 141 140 139 144 149 144 143 146 157 157 133 141 143 141 143 140 141 136 138 140 141 150 165 168 164 168 178 177 186 193 186 179 190 186 183 176 174 207 203 212 231 247 248 263 283 283
170 165 167 167 164 163 154 154 151 150 154 157 164 157 145 149 152 151 151 150 149 145 144 140 138 132 127 118 129 141 143 146 145 145 138 137 134 130 132 148 152 153 151 145 142 139 137 137 142 140 137 132 133 133 132 140 145 147 147 157 163 181 188 184 184 181 192 194 190 189 181 191 194 174 173 180 200 202 199 230 246 243 243 252 271
173 163 159 168 160 150 149 154 160 157 158 163 160 158 157 152 150 154 155 154 149 145 142 134 110 117 117 129 134 118 130 142 143 135 137 134 134 125 126 137 144 135 133 134 134 128 133 135 131 130 127 131 132 138 137 137 140 145 162 173 179 189 192 199 193 195 192 185 190 188 195 188 181 166 208 227 202 196 205 210 226 248 272 282 285
159 158 158 159 155 156 157 161 157 154 154 156 161 162 154 155 157 161 160 156 153 148 137 129 132 126 139 134 131 116 104 99 98 107 100 103 109 110 117 112 113 127 131 134 140 137 134 132 140 139 144 145 138 138 135 144 156 164 171 177 189 193 196 203 201 198 187 191 190 190 188 187 187 195 202 198 199 208 212 224 222 233 255 261 275
158 155 156 153 160 162 163 154 143 146 150 160 158 139 139 145 152 150 149 145 144 138 133 133 135 138 135 140 120 106 102 115 120 121 122 114 111 110 107 110 108 109 115 124 130 136 140 143 150 160 161 166 164 160 167 173 170 172 178 186 192 198 204 204 198 200 191 187 191 197 192 201 200 196 199 210 189 175 194 209 234 238 243 254 257
161 152 152 153 142 116 112 131 142 143 146 134 127 134 141 141 142 147 148 145 143 136 134 137 140 140 131 109 98 102 112 121 130 135 139 132 126 117 118 116 107 100 102 109 119 125 129 134 145 152 149 154 164 165 166 169 169 175 183 188 197 203 206 204 202 200 189 191 195 192 196 194 203 195 206 203 183 197 215 207 219 225 228 231 229
146 147 150 147 146 141 139 134 132 128 123 126 128 125 129 135 143 139 139 137 133 128 130 137 138 132 111 111 115 119 129 130 135 133 137 139 137 136 134 126 120 117 111 113 119 119 122 134 139 145 159 181 171 178 184 187 189 190 186 186 193 204 208 206 211 195 177 176 188 187 192 192 204 202 206 205 195 197 213 213 212 224 233 235 229
160 156 153 145 136 131 129 129 133 137 141 142 140 137 132 127 126 128 127 122 128 132 134 135 130 117 116 115 115 120 127 128 129 135 136 136 137 143 143 136 131 131 132 138 132 124 137 145 153 156 166 175 181 190 191 190 193 201 199 202 206 212 211 195 170 159 175 181 188 193 195 199 205 201 201 199 204 200 210 219 208 211 216 226 227
151 144 137 129 128 122 120 124 128 129 124 124 125 131 133 133 128 125 126 133 136 137 139 140 134 132 127 127 130 134 140 136 143 142 147 148 144 145 144 135 130 131 138 140 149 151 151 154 162 166 175 180 187 198 208 212 215 215 215 218 223 224 203 179 180 183 188 193 187 182 197 197 205 204 204 199 201 209 211 215 207 218 219 220 224
149 133 123 124 126 129 134 134 129 124 121 122 121 123 122 124 127 131 134 135 135 135 132 126 122 122 123 126 134 142 144 142 139 137 137 144 152 148 143 141 145 152 151 158 164 167 171 173 174 175 186 192 198 211 214 217 219 223 223 227 223 222 205 188 194 205 201 187 188 194 195 201 208 201 203 201 211 205 209 225 220 220 215 220 224
141 125 123 127 128 133 137 137 136 135 131 126 122 119 122 122 125 126 130 129 132 135 137 137 135 133 136 146 146 145 140 132 135 138 142 144 146 148 148 150 145 145 152 169 177 180 186 185 183 190 199 204 208 213 219 217 221 224 223 223 219 214 211 207 200 209 195 187 196 195 199 202 203 209 206 207 212 207 216 224 215 221 225 224 220
118 116 118 117 117 113 107 110 114 117 117 120 121 121 120 120 122 126 127 125 124 127 132 138 145 153 152 155 152 150 143 146 148 153 153 152 151 145 143 141 147 156 168 188 190 190 191 194 200 208 212 216 219 221 223 224 227 227 227 225 227 223 219 213 211 193 182 203 193 201 195 204 204 208 208 210 206 205 213 222 219 221 222 221 223
110 106 107 108 111 115 117 119 114 118 123 124 127 130 132 129 130 130 130 132 136 140 140 143 142 146 152 155 149 150 154 156 152 148 155 154 157 149 156 157 172 178 192 191 202 201 203 204 211 217 218 220 223 225 226 228 229 229 232 235 235 233 226 218 216 216 199 181 190 187 193 199 202 209 212 208 201 207 217 218 219 218 222 220 221